TimeEDT,TemperatureF,Dew PointF,Humidity,Sea Level PressureIn,VisibilityMPH,Wind Direction,Wind SpeedMPH,Gust SpeedMPH,PrecipitationIn,Events,Conditions,WindDirDegrees,DateUTC
12:53 AM,82.9,75.0,77,30.09,10.0,ENE,5.8,-,N/A,,Scattered Clouds,60,2012-10-05 04:53:00
1:53 AM,82.9,77.0,82,30.07,10.0,East,8.1,-,N/A,,Scattered Clouds,80,2012-10-05 05:53:00
2:53 AM,82.9,75.9,79,30.05,10.0,East,6.9,-,N/A,,Scattered Clouds,80,2012-10-05 06:53:00
3:53 AM,82.9,75.9,79,30.04,10.0,East,6.9,-,N/A,,Scattered Clouds,80,2012-10-05 07:53:00
4:53 AM,82.0,75.9,82,30.04,10.0,East,6.9,-,N/A,,Scattered Clouds,100,2012-10-05 08:53:00
5:53 AM,82.0,75.0,79,30.04,10.0,East,8.1,-,N/A,,Scattered Clouds,100,2012-10-05 09:53:00
6:53 AM,82.0,75.0,79,30.04,10.0,East,5.8,-,N/A,,Scattered Clouds,90,2012-10-05 10:53:00
7:50 AM,82.4,75.2,79,30.04,10.0,East,10.4,-,0.00,Rain,Light Rain,100,2012-10-05 11:50:00
7:53 AM,82.0,75.0,79,30.04,10.0,SE,10.4,-,0.00,Rain,Light Rain,130,2012-10-05 11:53:00
8:47 AM,82.4,75.2,79,30.04,10.0,ESE,5.8,-,0.00,,Scattered Clouds,120,2012-10-05 12:47:00
8:53 AM,82.9,75.9,79,30.04,10.0,ESE,5.8,-,0.00,,Scattered Clouds,110,2012-10-05 12:53:00
9:53 AM,86.0,75.9,72,30.05,10.0,ESE,9.2,-,N/A,,Mostly Cloudy,120,2012-10-05 13:53:00
10:53 AM,87.1,75.0,67,30.05,10.0,SE,10.4,-,N/A,,Scattered Clouds,130,2012-10-05 14:53:00
11:53 AM,87.1,73.9,65,30.04,10.0,ESE,11.5,-,N/A,,Mostly Cloudy,120,2012-10-05 15:53:00
12:53 PM,88.0,73.0,61,30.02,10.0,ESE,10.4,-,N/A,,Mostly Cloudy,120,2012-10-05 16:53:00
1:53 PM,88.0,75.0,65,30.01,10.0,ESE,9.2,-,N/A,,Mostly Cloudy,110,2012-10-05 17:53:00
2:53 PM,87.1,73.9,65,29.97,10.0,ESE,8.1,-,N/A,,Mostly Cloudy,120,2012-10-05 18:53:00
3:53 PM,87.1,73.0,63,29.94,10.0,East,10.4,-,N/A,,Scattered Clouds,100,2012-10-05 19:53:00
4:53 PM,86.0,73.9,67,29.94,10.0,ESE,13.8,-,N/A,,Mostly Cloudy,120,2012-10-05 20:53:00
5:53 PM,84.9,73.0,67,29.96,10.0,East,9.2,-,N/A,,Mostly Cloudy,90,2012-10-05 21:53:00
6:53 PM,84.0,73.9,72,29.95,10.0,ENE,11.5,-,N/A,,Mostly Cloudy,70,2012-10-05 22:53:00
7:53 PM,84.0,73.9,72,29.96,10.0,ENE,8.1,-,N/A,,Mostly Cloudy,70,2012-10-05 23:53:00
8:53 PM,82.9,75.9,79,29.98,10.0,ENE,6.9,-,0.00,,Mostly Cloudy,60,2012-10-06 00:53:00
9:53 PM,82.9,75.0,77,29.99,10.0,East,9.2,-,N/A,,Mostly Cloudy,100,2012-10-06 01:53:00
10:53 PM,82.9,73.9,74,29.99,10.0,ENE,8.1,-,N/A,,Mostly Cloudy,70,2012-10-06 02:53:00
11:53 PM,82.9,73.9,74,29.99,10.0,ENE,6.9,-,N/A,,Scattered Clouds,70,2012-10-06 03:53:00